TimeCDT,TemperatureF,Dew PointF,Humidity,Sea Level PressureIn,VisibilityMPH,Wind Direction,Wind SpeedMPH,Gust SpeedMPH,PrecipitationIn,Events,Conditions,WindDirDegrees,DateUTC
12:15 AM,50.5,44.6,80,30.01,10.0,North,10.4,-,N/A,,Clear,350,2013-05-09 05:15:00
12:35 AM,51.1,45.1,80,30.01,10.0,North,8.1,-,N/A,,Clear,10,2013-05-09 05:35:00
12:55 AM,50.0,44.8,82,30.01,10.0,NNW,6.9,-,N/A,,Clear,340,2013-05-09 05:55:00
1:35 AM,47.8,44.4,88,30.01,10.0,North,6.9,-,N/A,,Clear,350,2013-05-09 06:35:00
2:15 AM,50.0,45.9,86,30.01,10.0,NW,5.8,-,N/A,,Clear,320,2013-05-09 07:15:00
2:35 AM,50.0,46.0,86,30.02,10.0,NW,5.8,-,N/A,,Clear,320,2013-05-09 07:35:00
2:55 AM,50.9,46.6,85,30.03,10.0,NNW,5.8,-,N/A,,Mostly Cloudy,330,2013-05-09 07:55:00
3:15 AM,51.1,48.2,90,30.03,10.0,North,6.9,-,N/A,,Overcast,350,2013-05-09 08:15:00
3:35 AM,52.0,49.1,90,30.02,10.0,North,8.1,-,N/A,,Overcast,350,2013-05-09 08:35:00
3:55 AM,52.7,49.8,90,30.03,10.0,North,5.8,-,N/A,,Overcast,350,2013-05-09 08:55:00
4:35 AM,52.7,50.4,92,30.02,5.0,NNW,6.9,-,N/A,,Drizzle,330,2013-05-09 09:35:00
4:55 AM,52.7,50.9,94,30.02,4.0,NNW,8.1,-,0.01,Rain,Light Rain,340,2013-05-09 09:55:00
5:15 AM,52.7,50.9,94,30.03,3.0,NNW,10.4,-,0.01,,Drizzle,340,2013-05-09 10:15:00
5:35 AM,52.3,50.9,95,30.03,2.5,NNW,11.5,-,0.01,,Light Drizzle,340,2013-05-09 10:35:00
5:55 AM,52.2,50.7,95,30.03,0.5,North,15.0,-,0.01,Rain,Rain,350,2013-05-09 10:55:00
6:15 AM,52.0,50.5,95,30.03,1.2,North,12.7,-,N/A,,Drizzle,350,2013-05-09 11:15:00
6:35 AM,52.0,50.5,95,30.03,3.0,North,17.3,-,0.01,Rain,Light Rain,350,2013-05-09 11:35:00
6:55 AM,51.8,50.4,95,30.04,0.8,North,17.3,-,0.02,,Light Drizzle,360,2013-05-09 11:55:00
7:55 AM,51.1,50.0,96,30.07,0.5,North,20.7,24.2,N/A,Fog,Fog,360,2013-05-09 12:55:00
8:15 AM,50.2,49.1,96,30.08,1.2,North,15.0,23.0,N/A,,Overcast,360,2013-05-09 13:15:00
8:35 AM,50.0,48.6,95,30.08,3.0,North,18.4,-,N/A,,Overcast,360,2013-05-09 13:35:00
9:35 AM,50.9,49.1,94,30.09,7.0,North,16.1,20.7,N/A,,Overcast,350,2013-05-09 14:35:00
9:55 AM,51.8,49.5,92,30.10,7.0,North,15.0,-,N/A,,Overcast,350,2013-05-09 14:55:00
10:35 AM,51.6,47.8,87,30.10,10.0,North,17.3,-,N/A,,Overcast,350,2013-05-09 15:35:00
11:15 AM,55.4,48.2,77,30.10,10.0,North,18.4,-,N/A,,Mostly Cloudy,350,2013-05-09 16:15:00
11:35 AM,56.8,46.8,69,30.10,10.0,North,17.3,20.7,N/A,,Overcast,10,2013-05-09 16:35:00
11:55 AM,59.0,46.4,63,30.10,10.0,North,16.1,20.7,N/A,,Mostly Cloudy,360,2013-05-09 16:55:00
12:15 PM,59.2,45.9,61,30.10,10.0,North,20.7,25.3,N/A,,Mostly Cloudy,360,2013-05-09 17:15:00
12:35 PM,60.3,46.0,59,30.10,10.0,North,13.8,19.6,N/A,,Mostly Cloudy,10,2013-05-09 17:35:00
12:55 PM,60.6,46.0,59,30.11,10.0,North,16.1,23.0,N/A,,Mostly Cloudy,350,2013-05-09 17:55:00
1:15 PM,61.0,45.0,56,30.11,10.0,North,17.3,21.9,N/A,,Overcast,360,2013-05-09 18:15:00
1:35 PM,61.0,45.7,57,30.11,10.0,North,13.8,-,N/A,,Overcast,360,2013-05-09 18:35:00
1:55 PM,61.3,45.3,56,30.11,10.0,North,15.0,-,N/A,,Overcast,10,2013-05-09 18:55:00
2:15 PM,62.6,44.6,52,30.11,10.0,North,19.6,25.3,N/A,,Overcast,360,2013-05-09 19:15:00
2:35 PM,62.8,44.4,51,30.10,10.0,North,16.1,25.3,N/A,,Overcast,10,2013-05-09 19:35:00
2:55 PM,63.7,43.9,48,30.10,10.0,North,17.3,24.2,N/A,,Mostly Cloudy,10,2013-05-09 19:55:00
3:15 PM,64.9,42.8,45,30.10,10.0,North,18.4,25.3,N/A,,Mostly Cloudy,10,2013-05-09 20:15:00
3:35 PM,64.8,42.3,44,30.10,10.0,NNE,17.3,-,N/A,,Overcast,20,2013-05-09 20:35:00
3:55 PM,64.8,41.9,43,30.10,10.0,NNE,17.3,25.3,N/A,,Overcast,30,2013-05-09 20:55:00
4:15 PM,64.4,41.7,44,30.09,10.0,North,15.0,19.6,N/A,,Overcast,10,2013-05-09 21:15:00
4:35 PM,66.2,41.5,41,30.08,10.0,NNE,11.5,21.9,N/A,,Mostly Cloudy,20,2013-05-09 21:35:00
4:55 PM,66.7,40.5,38,30.08,10.0,NNE,13.8,21.9,N/A,,Scattered Clouds,30,2013-05-09 21:55:00
5:15 PM,65.5,40.8,41,30.08,10.0,North,15.0,23.0,N/A,,Mostly Cloudy,10,2013-05-09 22:15:00
5:35 PM,66.0,40.3,39,30.07,10.0,North,12.7,17.3,N/A,,Scattered Clouds,10,2013-05-09 22:35:00
5:55 PM,66.7,40.1,38,30.07,10.0,North,18.4,25.3,N/A,,Scattered Clouds,10,2013-05-09 22:55:00
6:15 PM,65.5,40.1,39,30.07,10.0,North,15.0,-,N/A,,Scattered Clouds,10,2013-05-09 23:15:00
6:35 PM,64.0,40.5,42,30.07,10.0,North,10.4,-,N/A,,Scattered Clouds,10,2013-05-09 23:35:00
6:55 PM,65.8,40.5,39,30.07,10.0,North,17.3,21.9,N/A,,Scattered Clouds,10,2013-05-09 23:55:00
7:15 PM,65.8,39.6,38,30.07,10.0,NNE,15.0,-,N/A,,Clear,20,2013-05-10 00:15:00
7:35 PM,64.9,39.4,39,30.08,10.0,NNE,10.4,-,N/A,,Clear,20,2013-05-10 00:35:00
7:55 PM,64.2,39.6,40,30.08,10.0,NNE,10.4,-,N/A,,Clear,20,2013-05-10 00:55:00
8:15 PM,62.2,41.7,47,30.08,10.0,NE,9.2,-,N/A,,Clear,40,2013-05-10 01:15:00
8:35 PM,59.5,42.4,53,30.09,10.0,NE,6.9,-,N/A,,Clear,50,2013-05-10 01:35:00
8:55 PM,56.7,42.8,60,30.09,10.0,NNE,6.9,-,N/A,,Clear,30,2013-05-10 01:55:00
9:15 PM,55.9,42.3,60,30.10,10.0,NNE,5.8,-,N/A,,Clear,20,2013-05-10 02:15:00
9:35 PM,54.9,41.7,61,30.10,10.0,NNE,5.8,-,N/A,,Clear,30,2013-05-10 02:35:00
9:55 PM,53.6,41.9,65,30.10,10.0,NNE,4.6,-,N/A,,Clear,30,2013-05-10 02:55:00
10:15 PM,53.6,40.8,62,30.11,10.0,NNE,4.6,-,N/A,,Scattered Clouds,20,2013-05-10 03:15:00
10:35 PM,51.8,41.0,67,30.12,10.0,North,6.9,-,N/A,,Scattered Clouds,10,2013-05-10 03:35:00
10:55 PM,52.2,41.0,66,30.12,10.0,North,5.8,-,N/A,,Scattered Clouds,350,2013-05-10 03:55:00
11:15 PM,51.8,41.0,67,30.12,10.0,North,4.6,-,N/A,,Mostly Cloudy,10,2013-05-10 04:15:00
11:35 PM,53.8,40.3,60,30.12,10.0,North,4.6,-,N/A,,Overcast,360,2013-05-10 04:35:00
11:55 PM,53.6,40.6,62,30.12,10.0,Calm,Calm,-,N/A,,Overcast,0,2013-05-10 04:55:00